Location: Cogollal
(10.0582°N, 67.8466°W)
Time: 12:14:19
(UTC+00:00)

Cosmos 1943 - Pass Details

Date: 14 April 2024
Orbit: 833 x 849 km, 71.0° (Epoch: 24 May)

Event Time Altitude Azimuth Distance (km) Brightness Sun altitude
Exits shadow 08:35:06 27° 175° (S) 1,578 4.5 -26.3°
Maximum altitude 08:38:10 60° 105° (ESE) 957 3.6 -25.6°
Drops below altitude 10° 08:43:43 10° 26° (NNE) 2,464 6.1 -24.3°
Sets 08:46:12 0° 22° (NNE) 3,400 6.9 -23.7°
